Weather in Burtnieki

Latvia     57°41′36″N   25°16′30″E
temp.,
°C
wind,
m/s
gust,
m/s
humid.,
%
clouds,
%
prec.,
mm/h
press.,
hPa
HPBL,
m
14 april, wed
wed1400:00+3nw1576100 0.1 1022302
03:00+2nw268188 0.1 1022241
06:000wnw249451 0.0 102179
09:00+4nnw247424 0.0 1022389
12:00+8nnw344855 0.0 10221305
15:00+10nnw3441100 0.0 10221795
18:00+10n3546100 0.0 10221650
21:00+6nne3863100 0.0 1024302
15 april, thu
thu1500:00+5nne4971100 0.0 1025461
03:00+3ne41074100 0.0 1026492
06:00+2nne3107480 0.0 1026391
09:00+5ne5116176 0.0 1027705
12:00+8ne694381 0.0 10271198
15:00+9ne7937100 0.0 10261402
18:00+9ne6104289 0.0 10251406
21:00+5nne6135481 0.0 1026715
16 april, fri
fri1600:00+4ne5135849 0.0 1026550
03:00+4ne51267100 0.0 1025593
06:00+3ne51376100 0.0 1025558
09:00+4ne51377100 0.0 1025506
12:00+9ene696086 0.0 1025775
15:00+12ene695342 0.0 10251156
18:00+11ene595995 0.0 10251021
21:00+9ene5116565 0.0 1026821
17 april, sat
sat1700:00+7ne4117239 0.0 1027439
03:00+6ene4117097 0.0 1027394
06:00+4ene41175100 0.0 1027350
09:00+7ene51066100 0.0 1028433
12:00+11e5855100 0.0 1028771
15:00+14e5750100 0.0 10281143
18:00+14e475493 0.0 10271262
21:00+9ene3872100 0.0 1028179
18 april, sun
sun1800:00+7ene387890 0.0 1029177
03:00+6ene2776100 0.0 1029146
06:00+5e377896 0.0 1029148
09:00+9e475951 0.0 1028334
12:00+14ese464120 0.0 10281093
15:00+16ese46325 0.0 10281578
18:00+16ese45365 0.0 10271693
21:00+9e36580 0.0 1028110